• In Deutschland
  • Länderverzeichnis
  • Für 7 Tage
  • Wassertemperatur
  • Satellitenkarten
  • Wetterkarte
  • Widgets
  • user-avatar
    Anmelden

    Stündliche Wetter Schumen

    Heute, 22 Juli, Sonntag

    Zeit Temperatur Niederschläge Wind Luftdruck Luftfeuchtigkeit
    00:00 +21°C° 0 mm 1 m/S 728 mmHg 76%
    01:00 +21°C° 0 mm 1 m/S 727 mmHg 76%
    02:00 +21°C° 0 mm 1 m/S 727 mmHg 75%
    03:00 +20°C° 0 mm 1 m/S 727 mmHg 75%
    04:00 +20°C° 0 mm 1 m/S 727 mmHg 74%
    05:00 +20°C° 0 mm 1 m/S 727 mmHg 74%
    06:00 +22°C° 0 mm 1 m/S 727 mmHg 68%
    07:00 +24°C° 0 mm 1 m/S 728 mmHg 62%
    08:00 +26°C° 0 mm 1 m/S 728 mmHg 56%
    09:00 +28°C° 0 mm 1 m/S 728 mmHg 52%
    10:00 +29°C° 0 mm 1 m/S 728 mmHg 47%
    11:00 +31°C° 0 mm 1 m/S 728 mmHg 42%
    12:00 +32°C° 0 mm 2 m/S 727 mmHg 40%
    13:00 +34°C° 0 mm 2 m/S 727 mmHg 37%
    14:00 +34°C° 0 mm 2 m/S 727 mmHg 34%
    15:00 +34°C° 0 mm 2 m/S 726 mmHg 36%
    16:00 +34°C° 0 mm 2 m/S 726 mmHg 38%
    17:00 +32°C° 0 mm 2 m/S 726 mmHg 40%
    18:00 +30°C° 0,1 mm 2 m/S 725 mmHg 48%
    19:00 +28°C° 0,1 mm 2 m/S 725 mmHg 57%
    20:00 +25°C° 0,1 mm 2 m/S 725 mmHg 65%
    21:00 +24°C° 0 mm 2 m/S 725 mmHg 70%
    22:00 +24°C° 0 mm 2 m/S 725 mmHg 74%
    23:00 +23°C° 0 mm 2 m/S 725 mmHg 78%

    Morgen, 23 Juli, Montag

    Zeit Temperatur Niederschläge Wind Luftdruck Luftfeuchtigkeit
    00:00 +23°C° 0 mm 2 m/S 725 mmHg 80%
    01:00 +22°C° 0 mm 1 m/S 725 mmHg 82%
    02:00 +22°C° 0 mm 1 m/S 724 mmHg 84%
    03:00 +22°C° 0,1 mm 1 m/S 724 mmHg 83%
    04:00 +22°C° 0,1 mm 1 m/S 724 mmHg 83%
    05:00 +22°C° 0,1 mm 1 m/S 724 mmHg 83%
    06:00 +23°C° 0 mm 1 m/S 724 mmHg 78%
    07:00 +24°C° 0 mm 1 m/S 724 mmHg 73%
    08:00 +26°C° 0 mm 2 m/S 724 mmHg 68%
    09:00 +27°C° 1,2 mm 2 m/S 724 mmHg 64%
    10:00 +28°C° 1,2 mm 2 m/S 724 mmHg 60%
    11:00 +29°C° 1,2 mm 3 m/S 724 mmHg 55%
    12:00 +29°C° 1 mm 2 m/S 723 mmHg 55%
    13:00 +29°C° 1 mm 2 m/S 723 mmHg 56%
    14:00 +29°C° 1 mm 2 m/S 723 mmHg 56%
    15:00 +28°C° 1,4 mm 2 m/S 723 mmHg 59%
    16:00 +28°C° 1,4 mm 2 m/S 722 mmHg 62%
    17:00 +27°C° 1,4 mm 3 m/S 722 mmHg 66%
    18:00 +26°C° 0,3 mm 2 m/S 722 mmHg 70%
    19:00 +24°C° 0,3 mm 2 m/S 722 mmHg 75%
    20:00 +23°C° 0,3 mm 2 m/S 722 mmHg 80%
    21:00 +23°C° 1,5 mm 2 m/S 722 mmHg 83%
    22:00 +21°C° 1,5 mm 2 m/S 722 mmHg 86%
    23:00 +21°C° 1,5 mm 1 m/S 722 mmHg 89%

    übermorgen, 24 Juli, Dienstag

    Zeit Temperatur Niederschläge Wind Luftdruck Luftfeuchtigkeit
    00:00 +21°C° 0,5 mm 1 m/S 722 mmHg 88%
    01:00 +21°C° 0,5 mm 1 m/S 722 mmHg 88%
    02:00 +21°C° 0,5 mm 1 m/S 722 mmHg 88%
    03:00 +20°C° 0,7 mm 1 m/S 722 mmHg 89%
    04:00 +20°C° 0,7 mm 1 m/S 721 mmHg 91%
    05:00 +19°C° 0,7 mm 2 m/S 721 mmHg 92%
    06:00 +19°C° 0,8 mm 2 m/S 722 mmHg 90%
    07:00 +20°C° 0,8 mm 2 m/S 722 mmHg 89%
    08:00 +21°C° 0,8 mm 2 m/S 722 mmHg 87%
    09:00 +21°C° 1,4 mm 2 m/S 722 mmHg 83%
    10:00 +23°C° 1,4 mm 2 m/S 723 mmHg 79%
    11:00 +24°C° 1,4 mm 2 m/S 723 mmHg 76%
    12:00 +25°C° 1 mm 2 m/S 723 mmHg 70%
    13:00 +26°C° 1 mm 2 m/S 723 mmHg 65%
    14:00 +27°C° 1 mm 2 m/S 722 mmHg 59%
    15:00 +27°C° 0,4 mm 2 m/S 722 mmHg 60%
    16:00 +27°C° 0,4 mm 2 m/S 722 mmHg 60%
    17:00 +27°C° 0,4 mm 2 m/S 722 mmHg 61%
    18:00 +25°C° 0,8 mm 2 m/S 722 mmHg 67%
    19:00 +24°C° 0,8 mm 2 m/S 723 mmHg 73%
    20:00 +22°C° 0,8 mm 1 m/S 723 mmHg 80%
    21:00 +21°C° 0,5 mm 1 m/S 723 mmHg 82%
    22:00 +21°C° 0,5 mm 1 m/S 723 mmHg 85%
    23:00 +20°C° 0,5 mm 1 m/S 723 mmHg 88%

    25 Juli, Mittwoch

    Zeit Temperatur Niederschläge Wind Luftdruck Luftfeuchtigkeit
    00:00 +20°C° 0,1 mm 1 m/S 723 mmHg 89%
    01:00 +19°C° 0,1 mm 2 m/S 723 mmHg 91%
    02:00 +18°C° 0,1 mm 2 m/S 723 mmHg 92%
    03:00 +18°C° 0 mm 2 m/S 723 mmHg 93%
    04:00 +18°C° 0 mm 2 m/S 723 mmHg 94%
    05:00 +18°C° 0 mm 2 m/S 723 mmHg 96%
    06:00 +19°C° 0,1 mm 2 m/S 724 mmHg 92%
    07:00 +20°C° 0,1 mm 3 m/S 724 mmHg 89%
    08:00 +21°C° 0,1 mm 3 m/S 724 mmHg 85%
    09:00 +24°C° 0,1 mm 3 m/S 724 mmHg 79%
    10:00 +25°C° 0,1 mm 4 m/S 725 mmHg 73%
    11:00 +27°C° 0,1 mm 4 m/S 725 mmHg 67%
    12:00 +27°C° 1 mm 4 m/S 725 mmHg 65%
    13:00 +28°C° 1 mm 4 m/S 725 mmHg 63%
    14:00 +28°C° 1 mm 4 m/S 725 mmHg 61%
    15:00 +28°C° 0,6 mm 3 m/S 725 mmHg 61%
    16:00 +29°C° 0,6 mm 3 m/S 725 mmHg 60%
    17:00 +29°C° 0,6 mm 2 m/S 725 mmHg 60%
    18:00 +27°C° 0,7 mm 2 m/S 725 mmHg 65%
    19:00 +25°C° 0,7 mm 2 m/S 725 mmHg 71%
    20:00 +24°C° 0,7 mm 1 m/S 725 mmHg 77%
    21:00 +23°C° 0,2 mm 1 m/S 725 mmHg 80%
    22:00 +22°C° 0,2 mm 1 m/S 725 mmHg 82%
    23:00 +22°C° 0,2 mm 1 m/S 725 mmHg 85%

    26 Juli, Donnerstag

    Zeit Temperatur Niederschläge Wind Luftdruck Luftfeuchtigkeit
    00:00 +21°C° 0,3 mm 1 m/S 725 mmHg 87%
    01:00 +21°C° 0,3 mm 1 m/S 725 mmHg 89%
    02:00 +20°C° 0,3 mm 2 m/S 725 mmHg 92%
    03:00 +19°C° 0,3 mm 2 m/S 725 mmHg 93%
    04:00 +19°C° 0,3 mm 2 m/S 725 mmHg 93%
    05:00 +20°C° 0,3 mm 1 m/S 725 mmHg 94%
    06:00 +20°C° 0,1 mm 2 m/S 726 mmHg 89%
    07:00 +23°C° 0,1 mm 2 m/S 726 mmHg 85%
    08:00 +24°C° 0,1 mm 2 m/S 726 mmHg 80%
    09:00 +26°C° 0,8 mm 2 m/S 726 mmHg 73%
    10:00 +27°C° 0,8 mm 3 m/S 726 mmHg 66%
    11:00 +29°C° 0,8 mm 3 m/S 726 mmHg 59%
    12:00 +30°C° 0,5 mm 3 m/S 726 mmHg 56%
    13:00 +30°C° 0,5 mm 3 m/S 726 mmHg 53%
    14:00 +31°C° 0,5 mm 3 m/S 726 mmHg 50%
    15:00 +31°C° 0,2 mm 3 m/S 726 mmHg 52%
    16:00 +30°C° 0,2 mm 3 m/S 726 mmHg 54%
    17:00 +30°C° 0,2 mm 3 m/S 726 mmHg 55%
    18:00 +28°C° 0,2 mm 2 m/S 726 mmHg 61%
    19:00 +27°C° 0,2 mm 2 m/S 726 mmHg 67%
    20:00 +25°C° 0,2 mm 1 m/S 726 mmHg 73%
    21:00 +24°C° 0,2 mm 1 m/S 726 mmHg 76%
    22:00 +23°C° 0,2 mm 1 m/S 726 mmHg 79%
    23:00 +22°C° 0,2 mm 1 m/S 726 mmHg 83%

    27 Juli, Freitag

    Zeit Temperatur Niederschläge Wind Luftdruck Luftfeuchtigkeit
    00:00 +22°C° 0,1 mm 1 m/S 726 mmHg 83%
    01:00 +22°C° 0,1 mm 1 m/S 726 mmHg 84%
    02:00 +21°C° 0,1 mm 1 m/S 726 mmHg 85%
    03:00 +21°C° 0 mm 1 m/S 727 mmHg 86%
    04:00 +21°C° 0 mm 1 m/S 727 mmHg 87%
    05:00 +21°C° 0 mm 1 m/S 727 mmHg 88%
    06:00 +22°C° 0,1 mm 1 m/S 727 mmHg 83%
    07:00 +24°C° 0,1 mm 1 m/S 727 mmHg 78%
    08:00 +26°C° 0,1 mm 2 m/S 728 mmHg 73%
    09:00 +27°C° 0,6 mm 2 m/S 728 mmHg 66%
    10:00 +29°C° 0,6 mm 2 m/S 728 mmHg 58%
    11:00 +30°C° 0,6 mm 2 m/S 728 mmHg 51%
    12:00 +31°C° 0 mm 2 m/S 728 mmHg 48%
    13:00 +32°C° 0 mm 2 m/S 727 mmHg 45%
    14:00 +34°C° 0 mm 3 m/S 727 mmHg 42%
    15:00 +32°C° 0 mm 2 m/S 727 mmHg 43%
    16:00 +32°C° 0 mm 2 m/S 727 mmHg 44%
    17:00 +32°C° 0 mm 2 m/S 727 mmHg 46%
    18:00 +30°C° 0 mm 2 m/S 727 mmHg 50%
    19:00 +28°C° 0 mm 1 m/S 727 mmHg 55%
    20:00 +26°C° 0 mm 1 m/S 727 mmHg 60%
    21:00 +26°C° 0,1 mm 1 m/S 727 mmHg 63%
    22:00 +25°C° 0,1 mm 1 m/S 727 mmHg 65%
    23:00 +24°C° 0,1 mm 1 m/S 727 mmHg 68%
    Mehr zeigen